Location: D.A.R.C. Observatory
(36.7133°N, 120.8553°W)
Time: 20:42:08
(UTC-07:00)

Daily predictions for brighter satellites

Satellite Brightness Start Highest point End
(mag) Time Altitude Azimuth Time Altitude Azimuth Time Altitude Azimuth
NOSS 0 Rocket 4.2 19:12:41 10° SSW 19:18:50 79° WNW 19:25:03 10° NNE
Cosmos 1844 3.8 19:13:14 10° NNW 19:18:51 85° WSW 19:24:23 10° SSE
Cosmos 1812 Rocket 3.6 19:16:13 10° S 19:20:32 87° W 19:24:54 10° N
Cosmos 1766 4.2 19:17:20 10° SSE 19:20:39 27° E 19:24:01 10° NNE
ASTRO E2 4.0 19:22:05 10° SW 19:25:33 28° SSE 19:29:01 10° ESE
MSX 4.3 19:20:42 10° S 19:26:23 70° WSW 19:32:08 10° NNW
ATLAS 3B R/B 4.2 19:20:16 10° WSW 19:27:27 43° NW 19:34:29 10° NNE
SeaSat 1 3.9 19:24:49 10° ENE 19:27:50 16° ESE 19:30:50 10° SE
ATLAS CENTAUR R/B 3.3 19:26:20 10° SSW 19:30:29 57° ESE 19:42:36 10° NE
Cosmos 1844 Rocket 3.8 19:25:15 10° NNW 19:30:36 48° WSW 19:35:58 10° S
Cosmos 1953 3.8 19:30:20 10° SE 19:32:57 17° E 19:35:33 10° NE
Cosmos 2237 Rocket 2.7 19:28:44 10° SSW 19:34:23 67° WNW 19:40:03 10° NNE
BREEZE-M DEB (TANK) 3.8 19:31:58 10° NW 19:35:27 87° NE 19:47:13 10° SE
Cosmos 921 Rocket 3.6 19:35:14 10° NNW 19:39:22 59° WSW 19:43:27 10° S
NOSS 3-2 (A) 3.5 19:35:12 10° SSW 19:41:02 57° ESE 19:47:20 10° NE
Cosmos 2233 Rocket 4.4 19:35:49 10° SSW 19:42:04 72° W 19:48:24 10° N
USA 238 DEB 4.4 19:38:25 10° SW 19:45:21 60° NW 19:52:19 10° NNE
USA 238 4.4 19:38:30 10° SW 19:45:27 60° NW 19:52:26 10° NNE
NOAA 12 4.0 19:41:51 10° SSE 19:47:04 82° ENE 19:52:22 10° N
Abrixas rocket 3.7 19:45:11 10° WNW 19:48:15 34° SW 19:51:18 10° SSE
ATLAS 5 CENTAUR R/B 2.4 19:45:45 10° S 19:49:59 34° ESE 19:54:29 10° NE
SL-16 R/B 2.1 19:46:36 10° SSW 19:52:15 74° ESE 19:57:56 10° NNE
Cosmos 1437 2.7 19:49:21 10° N 19:52:38 89° WSW 19:55:54 10° S
Cosmos 1076 Rocket 3.9 19:50:47 10° N 19:54:53 41° E 19:58:59 10° SSE
Cosmos-2242 3.8 19:51:21 10° SSE 19:55:06 29° E 19:58:55 10° NNE
Spot 2 Rocket 3.5 19:50:19 10° SSE 19:55:17 65° ENE 20:00:17 10° N
Cosmos 1805 4.0 19:52:07 10° SSE 19:55:35 30° E 19:59:04 10° NNE
Cosmos 2056 Rocket 3.5 19:52:55 10° NNW 19:58:22 74° ENE 20:03:46 10° SSE
Resurs 01 Rocket 1.6 19:54:53 10° SSE 19:59:17 69° ENE 20:03:44 10° N
Spot 1 4.2 19:54:30 10° SSE 19:59:24 84° ENE 20:04:02 10° NNW
H-2A R/B 3.9 19:58:28 22° E 19:59:35 25° ENE 20:02:47 10° NNE
FREGAT/IRIS 3.1 19:57:33 10° S 20:00:37 62° W 20:03:42 10° NNW
Aureole 2 Rocket 3.0 19:58:27 10° SSW 20:02:50 86° WNW 20:07:13 10° NNE
Cosmos 1408 Rocket 3.8 19:59:52 10° N 20:04:05 46° E 20:08:07 11° SSE
Resurs 1-3 3.6 20:01:11 10° SSE 20:05:30 61° ENE 20:09:50 10° N
Meteor 1-22 Rocket 4.4 20:00:47 10° SSW 20:06:11 72° W 20:11:29 10° N
SJ-6B 3.9 20:02:31 10° S 20:06:17 46° W 20:10:10 10° NNW
Okean 3 Rocket 4.0 20:02:13 10° NNW 20:06:44 67° W 20:11:14 10° S
Cosmos 1371 Rocket 4.4 20:02:30 10° NNW 20:07:45 66° WSW 20:13:01 10° S
Helios 1B rocket 2.5 20:03:57 10° N 20:08:04 83° WNW 20:12:10 10° SSW
Timation 1 Rocket 4.5 20:02:44 10° NNW 20:08:35 54° ENE 20:12:56 18° SE
ALOS 2.5 20:04:53 13° SE 20:08:45 45° ENE 20:13:13 10° N
Cosmos 1758 3.4 20:08:50 10° S 20:12:47 54° E 20:16:48 10° NNE
Cosmos 1378 3.5 20:13:35 10° NNW 20:17:18 66° W 20:20:59 10° S
NOSS 3-2 (C) 3.4 20:11:21 10° SSW 20:17:21 84° ESE 20:23:53 10° NNE
ASTEX 1 3.6 20:14:53 10° NNE 20:19:37 45° E 20:24:16 10° SSE
Cosmos 2278 Rocket 3.6 20:15:19 10° NW 20:20:32 39° WSW 20:25:44 10° S
Meteor 1-24 Rocket 4.3 20:16:03 10° NNW 20:21:35 57° W 20:26:54 10° S
Cosmos 1544 3.7 20:23:51 37° ENE 20:23:51 37° ENE 20:26:37 10° NNE
HJ-1C 4.4 20:19:58 10° S 20:23:11 47° W 20:26:28 10° NNW
Cosmos 2297 3.7 20:17:37 10° NNW 20:23:18 82° WSW 20:28:51 10° SSE
Meteor 1-29 3.7 20:20:45 10° N 20:24:12 55° WNW 20:27:37 10° SSW
CENTAUR R/B 4.3 20:19:48 10° SSE 20:20:10 11° SSE 20:20:10 11° SSE
Cosmos 1743 Rocket 3.9 20:25:54 10° N 20:30:02 42° ENE 20:30:02 42° ENE
FENGYUN 3A 3.5 20:26:06 13° SSE 20:30:53 76° ENE 20:36:16 10° N
OAO 3 Rocket 3.2 20:28:29 10° WSW 20:33:14 67° S 20:34:24 48° ESE
ATLAS CENTAUR R/B 2.3 20:29:40 10° NW 20:33:36 43° WSW 20:35:50 21° S
Cosmos 1603 3.6 20:33:31 10° S 20:39:10 67° ESE 20:44:53 10° NNE
Nadezhda 4 Rocket 3.9 20:33:19 10° N 20:39:34 64° E 20:43:07 26° SSE
Cosmos 2369 Rocket 3.7 20:36:48 10° N 20:40:09 19° NE 20:40:09 19° NE
Cosmos 1092 Rocket 4.1 20:37:36 10° N 20:43:38 49° E 20:44:44 44° ESE
ERS-1 Rocket 4.0 20:54:28 31° NE 20:54:28 31° NE 20:57:41 10° N
Atlas Centaur 2 3.6 20:46:52 10° W 20:54:37 42° SSW 20:57:08 33° SSE
Cosmos 1634 Rocket 4.0 20:54:29 52° E 20:54:38 52° E 21:00:39 10° NNE
Cosmos 1452 Rocket 3.5 20:49:58 10° NNW 20:55:15 80° WSW 20:56:48 47° S
Cosmos 1943 Rocket 4.4 20:53:49 10° NNE 20:54:04 10° NNE 20:54:04 10° NNE
Meteor 1-21 Rocket 4.3 20:52:46 10° NNW 20:58:20 75° W 21:01:12 29° S
BREEZE-M DEB (TANK) 4.4 20:28:57 10° NW 21:00:52 82° SW 21:03:46 43° SE
SeaSat 1 3.0 21:00:46 10° NNE 21:05:37 57° WNW 21:10:26 10° SW
ASTRO E2 4.4 21:02:01 10° WSW 21:04:14 27° SW 21:04:14 27° SW
OAO 1 Rocket 4.5 21:01:21 10° WSW 21:06:20 67° SSW 21:06:20 67° SSW
SEDSat Delta rocket 4.1 21:01:36 10° WSW 21:08:14 55° S 21:08:38 54° SSE
Cosmos 1953 4.4 21:05:43 10° SW 21:09:09 27° WNW 21:12:35 10° NNW
Cosmos 1420 Rocket 4.2 21:14:53 10° NNW 21:19:26 66° NNW 21:19:26 66° NNW
ATLAS 5 CENTAUR R/B 3.8 21:30:34 10° WSW 21:34:40 27° NW 21:39:03 10° N
Cosmos 2369 Rocket 4.2 22:19:44 10° NNW 22:21:57 24° NW 22:21:57 24° NW
